Fort Worth Alliance, TX

10:47 PM CDT on April 24, 2017 (GMT -0500)
Fort Worth Alliance

Weather History for KAFW - February, 2013

Change the Weather History Date:

Tuesday, February 5, 2013

  Actual Average Record
Temperature  
Mean Temperature 58 °F -  
Max Temperature 64 °F 55 °F 78 °F (2006)
Min Temperature 51 °F 34 °F 19 °F (2011)
Degree Days  
Heating Degree Days 8    
Growing Degree Days 8 (Base 50)    
Moisture  
Dew Point 56 °F    
Average Humidity 92    
Maximum Humidity 100    
Minimum Humidity 73    
Precipitation  
Precipitation 0.00 in - - ()
Sea Level Pressure  
Sea Level Pressure 29.95 in    
Wind  
Wind Speed 3 mph (NE)    
Max Wind Speed 9 mph    
Max Gust Speed -    
Visibility 3 miles    
Events Fog    
Averages and records for this station are not official NWS values.
T = Trace of Precipitation, MM = Missing Value Source: NWS Daily Summary

Daily Weather History Graph

Daily Weather History Graph

Search for Another Location

Airport or City:

Trip Planner

Search our weather history database for the weather conditions in past years. The results will help you decide how hot, cold, wet, or windy it might be!

Date:

Astronomy

Feb. 05, 2013 Rise Set
Actual Time 7:21 AM CST 6:05 PM CST
Civil Twilight 6:55 AM CST 6:31 PM CST
Nautical Twilight 6:26 AM CST 7:00 PM CST
Astronomical Twilight 5:57 AM CST 7:29 PM CST
Moon 2:58 AM CST (2/5) 1:30 PM CST (2/5)
Length of Visible Light 11h 35m
Length of Day
10h 44m
Waning Crescent, 26% of the Moon is Illuminated
Feb 5
Waning Crescent
Feb 10
New
Feb 17
First Quarter
Feb 25
Full
Mar 4
Last Quarter

Hourly Weather History & Observations

Time (CST) Temp. Dew Point Humidity Pressure Visibility Wind Dir Wind Speed Gust Speed Precip Events Conditions
12:53 AM 52.0 °F 50.0 °F 93% 29.87 in 6.0 mi Calm Calm - N/A   Clear
1:24 AM 51.8 °F 51.8 °F 100% 29.88 in 5.0 mi Calm Calm - N/A   Partly Cloudy
1:42 AM 53.6 °F 53.6 °F 100% 29.88 in 5.0 mi Calm Calm - N/A   Mostly Cloudy
1:53 AM 55.0 °F 53.1 °F 93% 29.87 in 4.0 mi NE 4.6 mph - N/A   Overcast
2:53 AM 55.9 °F 54.0 °F 93% 29.86 in 2.5 mi Calm Calm - N/A   Mist
3:14 AM 55.4 °F 55.4 °F 100% 29.88 in 1.0 mi Calm Calm - N/A   Mist
3:30 AM 55.4 °F 55.4 °F 100% 29.88 in 0.5 mi Calm Calm - 0.00 in Fog Light Drizzle
3:53 AM 57.9 °F 57.0 °F 97% 29.86 in 0.5 mi SSE 6.9 mph - 0.00 in Fog Light Drizzle
4:12 AM 57.2 °F 57.2 °F 100% 29.88 in 1.0 mi SSE 4.6 mph - 0.00 in   Light Drizzle
4:53 AM 57.9 °F 57.0 °F 97% 29.87 in 1.5 mi Calm Calm - 0.00 in   Light Drizzle
5:15 AM 57.2 °F 57.2 °F 100% 29.89 in 2.0 mi ESE 3.5 mph - 0.00 in   Light Drizzle
5:53 AM 57.9 °F 55.9 °F 93% 29.88 in 2.5 mi SE 3.5 mph - 0.00 in   Light Drizzle
6:46 AM 57.2 °F 57.2 °F 100% 29.92 in 1.8 mi Calm Calm - 0.00 in   Light Drizzle
6:53 AM 57.9 °F 57.0 °F 97% 29.91 in 1.8 mi NNE 3.5 mph - 0.00 in   Light Drizzle
7:22 AM 57.2 °F 55.4 °F 94% 29.93 in 1.0 mi NNE 3.5 mph - 0.00 in   Light Drizzle
7:37 AM 57.2 °F 55.4 °F 94% 29.94 in 0.5 mi NNE 3.5 mph - 0.00 in   Light Drizzle
7:53 AM 57.0 °F 55.9 °F 96% 29.94 in 0.5 mi NNE 3.5 mph - 0.00 in   Light Drizzle
9:53 AM 55.9 °F 55.0 °F 97% 29.99 in 0.5 mi Calm Calm - 0.00 in   Light Drizzle
10:04 AM 55.4 °F 55.4 °F 100% 29.99 in 1.0 mi Calm Calm - 0.00 in   Light Drizzle
10:32 AM 57.2 °F 55.4 °F 94% 30.00 in 1.0 mi NNE 4.6 mph - 0.00 in   Light Drizzle
10:53 AM 57.9 °F 55.9 °F 93% 30.00 in 1.0 mi NE 4.6 mph - 0.00 in   Overcast
11:03 AM 57.2 °F 55.4 °F 94% 30.00 in 2.5 mi North 4.6 mph - N/A   Overcast
11:53 AM 59.0 °F 55.9 °F 90% 30.00 in 2.5 mi North 3.5 mph - N/A   Overcast
12:00 PM 60.8 °F 55.4 °F 82% 30.00 in 3.0 mi North 8.1 mph - N/A   Overcast
12:08 PM 59.0 °F 55.4 °F 88% 30.00 in 3.0 mi North 6.9 mph - N/A   Overcast
12:53 PM 59.0 °F 55.0 °F 87% 29.99 in 3.0 mi NNE 5.8 mph - N/A   Overcast
1:53 PM 62.1 °F 55.9 °F 80% 29.96 in 3.0 mi NE 5.8 mph - N/A   Haze
2:46 PM 62.6 °F 55.4 °F 77% 29.96 in 3.0 mi NNE 3.5 mph - N/A   Haze
2:53 PM 63.0 °F 55.9 °F 78% 29.95 in 3.0 mi Variable 4.6 mph - N/A   Haze
3:08 PM 64.4 °F 55.4 °F 73% 29.95 in 5.0 mi Variable 3.5 mph - N/A   Haze
3:53 PM 64.0 °F 55.9 °F 75% 29.94 in 5.0 mi NNE 3.5 mph - N/A   Haze
4:53 PM 62.1 °F 57.0 °F 84% 29.95 in 5.0 mi North 8.1 mph - N/A   Haze
5:25 PM 60.8 °F 55.4 °F 82% 29.96 in 3.0 mi NNE 8.1 mph - N/A   Overcast
5:36 PM 59.0 °F 55.4 °F 88% 29.96 in 3.0 mi NNE 5.8 mph - N/A   Overcast
5:53 PM 59.0 °F 55.9 °F 90% 29.95 in 3.0 mi NNE 6.9 mph - N/A   Overcast
6:53 PM 59.0 °F 55.9 °F 90% 29.97 in 3.0 mi NE 6.9 mph - N/A   Overcast
7:53 PM 57.9 °F 57.0 °F 97% 29.99 in 3.0 mi ENE 8.1 mph - N/A   Overcast
8:06 PM 57.2 °F 55.4 °F 94% 29.99 in 4.0 mi ENE 6.9 mph - N/A   Overcast
8:53 PM 57.9 °F 55.9 °F 93% 30.00 in 3.0 mi ENE 9.2 mph - N/A   Overcast
9:53 PM 57.9 °F 55.9 °F 93% 30.00 in 3.0 mi ENE 5.8 mph - N/A   Overcast
10:04 PM 57.2 °F 55.4 °F 94% 30.00 in 2.5 mi East 4.6 mph - N/A   Overcast
10:53 PM 57.9 °F 55.9 °F 93% 30.01 in 2.5 mi ENE 3.5 mph - N/A   Overcast
11:43 PM 57.2 °F 55.4 °F 94% 30.02 in 3.0 mi Calm Calm - N/A   Overcast
11:53 PM 57.9 °F 55.9 °F 93% 30.01 in 3.0 mi NE 3.5 mph - N/A   Overcast